Date,TemperatureHighF,TemperatureAvgF,TemperatureLowF,DewpointHighF,DewpointAvgF,DewpointLowF,HumidityHigh,HumidityAvg,HumidityLow,PressureMaxIn,PressureMinIn,WindSpeedMaxMPH,WindSpeedAvgMPH,GustSpeedMaxMPH,PrecipitationSumIn
2013-1-1,20.3,6.8,-4.7,13.9,-4.1,-16.1,76,60,57,30.20,29.94,3,1,8,0.00
2013-1-2,22.3,18.8,15.3,18.5,13.9,11.0,85,81,77,30.00,29.88,5,1,6,0.00
2013-1-3,21.9,14.9,10.9,15.5,4.4,-2.5,77,63,49,30.17,30.00,6,3,11,0.00
2013-1-4,31.8,22.4,16.0,12.8,10.3,8.0,77,60,44,30.06,29.94,5,1,8,0.00
2013-1-5,26.1,18.5,12.2,13.7,8.9,6.4,82,67,46,30.00,29.79,5,1,8,0.00
2013-1-6,24.6,17.5,11.3,12.4,7.1,2.5,80,65,45,30.15,29.94,5,2,10,0.00
2013-1-7,37.8,29.6,16.5,20.8,17.9,9.1,75,62,49,29.91,29.79,6,2,11,0.00
2013-1-8,34.7,28.7,19.2,26.6,20.7,14.4,87,72,56,29.91,29.67,6,2,9,0.00
2013-1-9,34.9,31.0,26.1,26.3,17.7,13.9,76,58,44,30.26,29.82,7,3,15,0.00
2013-1-10,41.5,33.8,26.8,34.1,21.9,16.5,97,64,40,30.20,29.67,7,2,11,0.17
2013-1-11,41.4,37.6,35.1,40.8,37.1,34.3,98,98,97,29.67,29.29,6,1,8,0.04
2013-1-12,38.7,15.7,4.8,38.1,4.2,-9.8,98,61,48,30.00,29.32,6,0,13,0.00
2013-1-13,8.4,5.1,1.4,-6.4,-9.5,-13.0,50,50,50,30.15,29.97,0,0,0,0.00
2013-1-14,12.6,8.4,4.1,-2.6,-6.5,-10.5,50,50,50,30.32,30.15,0,0,0,0.00
2013-1-15,30.2,19.9,8.5,12.1,4.5,-6.3,76,51,41,30.19,29.76,0,0,0,0.00
2013-1-16,36.3,26.9,12.7,32.3,14.0,-6.6,89,59,39,30.15,29.58,6,2,12,0.00
2013-1-17,19.0,13.0,7.2,4.8,-4.1,-11.6,57,46,41,30.29,30.15,5,1,9,0.00
2013-1-18,41.7,29.4,17.4,28.2,18.8,4.8,79,65,49,30.20,29.64,7,2,12,0.00
2013-1-19,38.5,24.8,2.5,31.5,15.2,-10.4,92,68,42,30.15,29.61,12,3,28,0.00
2013-1-20,7.9,2.5,-2.0,-5.3,-10.4,-14.6,54,54,54,30.32,30.15,6,3,13,0.00
2013-1-21,-2.0,-6.3,-11.0,-14.6,-18.6,-23.1,54,54,54,30.26,30.17,8,4,31,0.00
2013-1-22,5.4,-3.5,-12.5,-7.7,-16.0,-24.4,54,54,54,30.32,30.15,5,1,8,1.09
2013-1-23,15.4,6.9,-4.9,1.6,-7.8,-20.4,57,50,46,30.53,30.06,7,2,47,0.00
2013-1-24,13.1,1.9,-6.9,-3.8,-14.2,-22.3,46,46,46,30.59,30.09,7,2,10,0.00
2013-1-25,19.0,13.5,4.6,5.5,-2.3,-12.1,59,49,45,30.20,29.85,7,4,15,0.00
2013-1-26,23.9,13.0,0.3,6.1,-4.5,-16.1,49,45,43,30.26,30.03,7,3,9,2.18
2013-1-27,33.8,29.8,23.4,31.7,19.1,5.8,96,67,45,30.03,29.73,5,5,6,0.00
2013-1-28,36.1,33.0,30.9,35.6,32.4,30.4,98,98,96,29.82,29.56,5,5,6,0.09
2013-1-29,35.8,32.8,27.9,34.0,28.0,16.9,98,83,63,29.67,29.47,5,5,6,0.13
2013-1-30,27.7,17.6,8.1,16.3,5.4,-4.8,69,58,52,29.67,29.58,5,5,6,0.00
2013-1-31,7.9,1.7,-7.4,-5.0,-10.7,-19.3,55,55,55,30.17,29.67,5,5,6,0.00
2013-2-1,3.9,-3.4,-12.3,-8.7,-15.5,-23.9,55,55,55,30.23,29.97,5,5,6,0.00
2013-2-2,12.2,6.3,0.3,-0.9,-6.4,-12.1,55,55,55,30.09,29.88,5,5,6,0.00
2013-2-3,13.6,10.1,3.7,0.4,-2.8,-8.9,55,55,55,30.00,29.91,5,5,6,0.00
2013-2-4,16.2,10.5,3.6,6.2,-4.3,-9.0,70,51,44,30.00,29.67,5,5,6,0.00
2013-2-5,29.1,22.4,10.0,24.0,11.9,-1.8,87,65,45,30.00,29.58,5,5,6,0.00
2013-2-6,25.2,16.6,6.3,17.2,7.4,-5.4,80,67,58,30.03,29.85,5,5,6,0.00
2013-2-7,27.7,25.6,22.5,23.1,19.5,15.8,93,78,61,30.17,29.91,5,5,6,0.00
2013-2-8,28.9,22.7,13.6,17.8,10.5,5.7,78,60,43,30.29,30.12,5,5,6,0.00
2013-2-9,32.7,29.2,25.0,28.0,23.3,18.2,89,79,71,30.12,29.85,5,5,6,0.00
2013-2-10,33.8,31.1,28.6,33.3,29.0,23.8,98,92,79,29.85,29.23,5,5,6,0.00
2013-2-11,30.6,25.4,16.9,30.1,16.7,7.8,98,70,53,29.97,29.26,5,5,6,0.00
2013-2-12,35.0,24.7,14.2,17.3,13.7,5.9,76,64,46,29.97,29.73,5,5,6,0.00
2013-2-13,41.2,29.9,21.2,31.5,21.2,14.6,93,71,46,29.73,29.50,5,1,6,0.04
2013-2-14,33.3,26.3,14.0,31.9,16.9,-1.6,97,71,35,30.09,29.52,0,0,0,0.00
2013-2-15,18.3,11.5,5.9,-0.5,-4.8,-10.9,50,47,43,30.20,30.09,0,0,0,0.00
2013-2-16,21.6,10.1,2.8,4.4,-6.3,-13.7,53,47,45,30.17,30.03,0,0,0,0.00
2013-2-17,32.5,22.0,7.9,17.6,7.5,-6.9,64,53,47,30.03,29.56,0,0,0,0.00
2013-2-18,33.6,23.7,9.3,29.0,13.2,-3.6,83,64,53,29.73,29.44,0,0,0,0.00
2013-2-19,9.1,5.4,0.3,-3.8,-7.3,-12.1,55,55,55,30.26,29.73,0,0,0,0.00
2013-2-20,16.2,6.1,-4.7,0.6,-8.4,-16.8,55,51,44,30.38,30.26,0,0,0,0.00
2013-2-21,22.3,14.6,4.1,10.7,-2.4,-12.6,61,46,43,30.35,30.00,0,0,0,0.00
2013-2-22,28.2,23.9,20.5,21.5,16.4,9.2,87,73,57,30.03,29.76,0,0,0,0.00
2013-2-23,33.4,25.5,19.9,23.2,17.0,11.7,86,71,53,29.88,29.76,0,0,0,0.00
2013-2-24,37.4,24.3,11.7,18.0,12.9,6.1,80,63,43,30.03,29.88,0,0,0,0.04
2013-2-25,38.3,29.0,21.2,19.0,16.8,14.2,74,61,42,30.03,29.97,0,0,0,0.13
2013-2-26,36.3,26.9,14.9,21.6,17.8,11.3,88,69,54,29.97,29.82,0,0,0,0.00
2013-2-27,40.6,32.3,27.9,22.9,20.1,17.6,76,61,41,29.97,29.79,0,0,0,0.09
2013-2-28,30.7,28.7,23.9,18.1,14.8,9.8,68,56,51,30.15,29.97,0,0,0,0.00
2013-3-1,30.4,24.8,16.7,12.2,9.7,5.6,61,52,44,30.26,30.15,0,0,0,0.00
2013-3-2,33.2,21.0,8.4,9.7,5.1,-0.6,78,51,35,30.26,30.09,0,0,0,0.00
2013-3-3,34.6,27.0,19.9,10.8,6.5,1.8,53,41,33,30.09,29.91,0,0,0,0.00
2013-3-4,28.9,25.7,23.5,22.3,14.0,6.1,88,63,38,29.97,29.88,0,0,0,0.00
2013-3-5,30.6,26.2,22.3,23.9,21.2,15.9,92,82,65,30.20,29.91,0,0,0,0.00
2013-3-6,29.3,22.7,14.1,17.0,12.5,7.9,76,65,50,30.32,30.20,0,0,0,0.00
2013-3-7,34.5,22.6,9.3,17.6,9.9,3.3,80,60,42,30.29,30.17,0,0,0,0.00
2013-3-8,40.1,30.5,19.8,26.5,19.3,11.4,78,63,50,30.23,30.00,0,0,0,0.13
2013-3-9,37.8,36.0,34.0,37.2,34.4,24.5,98,94,65,30.00,29.61,0,0,0,0.39
2013-3-10,35.4,33.4,29.7,34.9,26.8,20.2,98,77,64,29.88,29.70,0,0,0,0.04
2013-3-11,30.9,28.0,22.8,20.0,17.2,12.9,72,64,51,29.79,29.67,0,0,0,0.00
2013-3-12,29.5,24.9,21.4,14.2,9.6,4.0,69,52,39,30.09,29.76,0,0,0,0.00
2013-3-13,32.9,22.9,12.7,11.4,8.6,6.3,77,55,38,30.29,30.12,0,0,0,0.00
2013-3-14,43.3,32.1,24.6,23.6,19.7,11.8,87,61,44,30.15,29.94,0,0,0,0.00
2013-3-15,34.5,31.6,24.1,32.2,26.4,20.7,95,81,68,29.94,29.76,0,0,0,0.09
2013-3-16,26.1,21.0,12.6,20.8,8.1,-3.9,88,59,42,30.15,29.82,0,0,0,0.00
2013-3-17,28.8,18.6,6.1,12.1,0.6,-9.9,53,45,40,30.17,29.79,0,0,0,0.00
2013-3-18,29.5,22.5,11.8,27.4,12.6,0.2,92,66,49,29.79,29.52,0,0,0,0.00
2013-3-19,22.6,13.5,6.3,2.9,-2.1,-9.2,59,50,38,30.09,29.73,0,0,0,0.00
2013-3-20,22.2,13.1,4.6,1.1,-6.0,-14.0,45,41,39,30.12,30.03,0,0,0,0.00
2013-3-21,27.0,16.7,5.0,6.4,-1.6,-11.7,51,44,41,30.03,29.94,0,0,0,0.00
2013-3-22,36.1,24.3,10.6,13.1,6.1,-2.4,58,46,35,30.00,29.94,0,0,0,0.00
2013-3-23,38.6,29.1,17.1,15.2,11.5,7.0,67,48,36,30.06,29.97,0,0,0,0.00
2013-3-24,33.5,29.9,27.3,23.2,17.7,13.9,80,61,48,30.00,29.88,0,0,0,0.00
2013-3-25,38.1,30.9,22.3,16.5,13.1,9.6,59,48,39,30.12,29.97,0,0,0,0.00
2013-3-26,41.0,32.1,24.8,18.2,15.4,13.6,64,51,39,30.20,30.12,0,0,0,0.00
2013-3-27,44.6,34.2,23.5,17.8,14.8,12.2,63,46,32,30.23,30.20,0,0,0,0.00
2013-3-28,47.5,35.2,22.3,23.0,17.4,13.5,75,50,31,30.23,30.17,0,0,0,0.00
2013-3-29,53.6,40.2,30.0,32.6,25.2,19.3,71,56,38,30.17,29.97,0,0,0,0.00
2013-3-30,53.6,44.0,36.3,44.2,34.4,28.6,94,70,49,29.97,29.76,0,0,0,0.39
2013-3-31,39.4,34.3,24.0,32.1,20.2,8.3,92,59,32,30.00,29.70,0,0,0,0.00
2013-4-1,34.2,25.6,17.8,12.3,8.6,5.4,59,49,38,30.15,30.00,0,0,0,0.00
2013-4-2,37.0,27.7,19.4,12.8,10.3,7.3,71,49,33,30.26,30.15,0,0,0,0.00
2013-4-3,48.2,35.5,19.8,25.4,16.8,8.8,69,48,32,30.29,29.94,0,0,0,0.00
2013-4-4,49.6,43.0,33.6,29.8,22.8,16.1,68,45,33,30.06,29.91,0,0,0,0.00
2013-4-5,44.8,34.5,25.3,33.4,20.5,11.5,93,59,32,30.15,29.82,0,0,0,0.04
2013-4-6,53.6,41.6,36.6,41.7,30.9,22.0,93,68,40,29.79,29.41,0,0,0,0.17
2013-4-7,50.9,41.5,35.4,38.8,30.2,24.8,88,66,42,29.85,29.64,0,0,0,0.09
2013-4-8,45.5,42.1,40.5,43.5,39.3,33.7,98,90,76,29.97,29.58,0,0,0,0.87
2013-4-9,44.1,38.6,33.6,33.8,26.8,19.3,84,64,41,30.09,29.88,0,0,0,0.13
2013-4-10,39.7,35.2,30.7,29.2,21.9,16.6,92,61,41,30.09,29.82,0,0,0,0.04
2013-4-11,36.0,33.7,30.6,33.8,28.1,16.0,98,82,44,29.82,29.61,0,0,0,0.00
2013-4-12,37.4,31.8,28.0,30.6,25.9,20.1,98,80,53,29.73,29.58,0,0,0,0.17
2013-4-13,36.3,32.7,29.2,27.2,21.5,17.7,89,65,47,29.85,29.73,0,0,0,0.04
2013-4-14,36.9,32.7,28.6,36.3,26.6,17.2,98,80,54,29.85,29.41,0,0,0,0.04
2013-4-15,39.7,36.1,32.7,36.2,25.4,21.9,98,66,50,29.88,29.44,0,0,0,0.22
2013-4-16,45.3,38.0,33.3,26.1,22.1,20.2,69,53,39,30.20,29.85,0,0,0,0.00
2013-4-17,41.2,37.3,34.7,34.8,25.4,20.7,98,63,50,30.20,29.82,0,0,0,0.13
2013-4-18,35.2,33.0,31.8,34.7,32.1,29.3,98,96,86,29.85,29.44,0,0,0,0.09
2013-4-19,37.9,33.2,29.2,34.4,24.5,10.5,98,74,43,29.88,29.41,0,0,0,0.04
2013-4-20,42.8,32.6,21.9,14.2,11.4,6.8,63,42,30,30.20,29.88,0,0,0,0.22
2013-4-21,49.3,40.8,33.6,46.1,32.7,13.6,96,74,42,30.20,29.91,0,0,0,0.09
2013-4-22,44.8,37.6,32.7,36.4,29.6,22.0,98,75,43,30.12,30.03,0,0,0,0.00
2013-4-23,43.0,35.0,27.7,34.6,24.6,14.6,98,71,37,30.06,29.97,0,0,0,0.35
2013-4-24,52.9,37.9,26.1,33.5,24.6,17.3,87,62,31,29.97,29.82,0,0,0,0.00
2013-4-25,53.8,42.1,32.2,33.2,25.0,21.3,86,54,30,30.09,29.88,0,0,0,0.00
2013-4-26,72.5,58.0,45.3,39.2,32.3,22.9,61,40,25,30.03,29.85,0,0,0,0.00
2013-4-27,76.3,61.2,41.2,39.7,32.1,26.6,61,36,21,30.03,29.79,0,0,0,0.00
2013-4-28,82.9,65.6,52.3,52.1,42.2,38.0,85,46,23,29.79,29.56,0,0,0,0.09
2013-4-29,75.4,62.7,49.1,53.4,40.2,28.7,91,47,25,29.73,29.47,0,0,0,0.00
2013-4-30,70.0,64.7,56.8,56.3,41.2,26.6,73,45,23,29.85,29.32,0,0,0,0.00
2013-5-1,56.5,42.2,34.3,37.2,29.6,20.6,98,64,35,30.35,29.88,0,0,0,0.26
2013-5-2,46.9,40.3,35.6,22.9,21.0,18.6,57,46,38,30.44,30.32,0,0,0,0.00
2013-5-3,37.4,34.6,32.4,32.2,26.4,18.6,91,73,47,30.32,30.06,0,0,0,0.17
2013-5-4,47.5,39.4,33.4,38.0,34.6,29.8,98,84,65,30.09,30.03,0,0,0,0.04
2013-5-5,66.7,50.5,38.1,43.0,37.3,33.4,88,63,38,30.09,29.97,0,0,0,0.00
2013-5-6,75.8,60.8,44.8,42.9,40.3,37.2,85,51,27,30.03,29.91,0,0,0,0.00
2013-5-7,79.7,66.6,51.6,48.4,41.2,36.6,78,44,23,29.97,29.85,0,0,0,0.00
2013-5-8,78.6,65.4,58.3,56.7,46.6,39.9,89,54,26,29.91,29.85,0,0,0,0.09
2013-5-9,58.8,53.6,43.3,55.9,44.5,21.8,92,72,42,30.00,29.85,0,0,0,0.09
2013-5-10,68.7,51.9,35.4,36.4,24.9,21.8,62,37,22,30.03,29.76,0,0,0,0.00
2013-5-11,58.0,47.5,41.2,36.0,22.0,15.8,52,37,28,30.06,29.76,0,0,0,0.00
2013-5-12,59.4,47.1,35.4,23.2,19.0,15.2,48,33,24,30.12,29.97,0,0,0,0.00
2013-5-13,60.6,44.2,36.9,26.4,21.2,16.1,51,41,27,30.00,29.91,0,0,0,0.00
2013-5-14,96.9,83.4,70.3,46.8,40.7,32.0,36,23,16,29.58,29.35,0,0,0,0.00
2013-5-15,81.9,68.0,54.5,41.6,39.6,37.1,57,37,23,29.82,29.58,0,0,0,0.00
2013-5-16,81.7,70.6,54.9,45.9,38.6,28.2,68,34,20,29.82,29.70,0,0,0,0.00
2013-5-17,68.4,60.0,57.0,56.4,47.6,27.9,94,69,22,29.88,29.76,0,0,0,0.09
2013-5-18,81.7,66.3,56.3,69.0,57.4,54.0,98,77,42,31.15,29.82,0,0,0,0.87
2013-5-19,83.4,69.6,64.4,67.4,62.3,56.9,98,80,41,31.15,31.15,0,0,0,1.40
2013-5-20,72.0,67.0,61.2,65.8,58.0,50.0,98,75,47,31.15,31.15,0,0,0,0.17
2013-5-21,61.0,54.9,47.3,58.8,53.9,46.8,98,97,89,31.15,31.15,0,0,0,0.17
2013-5-22,52.9,49.3,45.3,49.7,46.2,39.7,98,90,62,31.15,31.15,0,0,0,0.04
2013-5-23,64.4,53.5,44.1,40.9,30.8,23.0,80,45,25,31.15,31.15,0,0,0,0.00
2013-5-24,68.9,56.2,39.6,51.2,33.9,22.8,86,46,28,31.15,31.15,0,0,0,0.13
2013-5-25,62.8,57.8,53.6,52.6,44.7,39.1,96,64,43,31.15,31.15,0,0,0,0.04
2013-5-26,59.5,57.0,54.0,41.9,36.1,30.6,53,46,36,31.15,31.15,0,0,0,0.00
2013-5-27,61.5,58.2,54.7,55.3,47.9,41.4,94,69,53,31.15,31.15,0,0,0,0.00
2013-5-28,60.6,57.5,54.5,56.9,54.1,50.9,92,88,84,31.15,31.15,0,0,0,0.00
2013-5-29,76.1,66.5,55.6,68.1,59.7,53.6,96,80,57,31.15,31.15,0,0,0,0.13
2013-5-30,76.3,69.0,64.6,66.7,61.2,53.5,98,78,46,31.15,31.15,0,0,0,0.22
2013-5-31,78.4,68.9,62.1,63.4,52.5,43.0,98,61,32,31.15,31.15,0,0,0,0.17
2013-6-1,73.2,61.1,52.2,60.8,49.2,38.8,91,66,38,31.15,31.15,0,0,0,0.04
2013-6-2,66.0,57.2,49.6,40.5,35.5,32.9,65,45,33,31.15,31.15,0,0,0,0.00
2013-6-3,68.5,60.8,47.4,47.3,38.8,35.7,81,47,31,31.15,31.15,0,0,0,0.00
2013-6-4,64.0,60.1,54.5,53.8,44.9,36.7,90,59,43,31.15,31.15,0,0,0,0.00
2013-6-5,60.4,56.9,54.0,58.0,55.5,50.1,98,95,85,31.15,31.15,0,0,0,0.17
2013-6-6,56.8,53.4,50.2,53.8,51.0,49.5,98,92,77,31.15,31.15,0,0,0,0.00
2013-6-7,64.2,57.9,53.1,52.3,49.0,44.5,92,74,49,31.15,31.15,0,0,0,0.00
2013-6-8,71.2,63.9,55.4,56.2,49.5,44.5,91,62,39,31.15,31.15,0,0,0,0.00
2013-6-9,66.2,60.7,57.4,63.6,57.2,49.7,98,89,60,31.15,31.15,0,0,0,0.44
2013-6-10,74.7,65.8,59.9,65.1,58.8,54.0,98,80,50,31.15,31.15,0,0,0,0.00
2013-6-11,74.1,67.1,57.9,66.3,61.8,56.8,97,84,65,31.15,31.15,0,0,0,0.00
2013-6-12,73.0,65.7,59.7,69.0,58.3,45.5,98,79,47,31.15,31.15,0,0,0,1.00
2013-6-13,76.5,68.3,57.7,50.8,46.8,43.9,69,48,34,31.15,31.15,0,0,0,0.00
2013-6-14,77.9,70.0,57.6,57.2,50.7,43.7,75,51,41,31.15,31.15,0,0,0,0.00
2013-6-15,76.6,69.2,64.2,69.7,64.0,58.3,97,84,66,31.15,31.15,0,0,0,0.79
2013-6-16,84.9,70.4,58.6,62.4,51.1,40.0,97,58,21,31.15,31.15,0,0,0,0.00
2013-6-17,80.8,70.8,62.4,55.6,51.0,46.3,74,52,30,31.15,31.15,0,0,0,0.00
2013-6-18,74.1,65.4,53.8,53.2,48.4,41.5,68,55,40,31.15,31.15,0,0,0,0.00
2013-6-19,84.0,72.5,60.3,55.8,52.9,48.2,82,53,30,31.15,31.15,0,0,0,0.00
2013-6-20,88.4,79.3,70.2,61.2,56.8,52.4,68,48,32,31.15,31.15,0,0,0,0.00
2013-6-21,81.5,74.7,68.4,68.1,62.4,55.5,98,70,41,31.15,31.15,0,0,0,0.83
2013-6-22,78.8,72.7,66.7,68.1,65.6,63.4,98,80,60,31.15,31.15,0,0,0,0.13
2013-6-23,82.4,74.2,69.1,71.9,65.2,57.0,98,76,43,31.15,28.73,0,0,0,0.92
2013-6-24,83.3,73.2,64.8,69.7,63.6,57.3,97,74,45,29.91,28.76,0,0,0,0.00
2013-6-25,84.4,75.9,65.1,70.7,64.5,59.1,93,70,43,29.67,28.64,0,0,0,0.00
2013-6-26,86.5,78.9,72.9,76.7,67.5,58.1,96,71,41,29.73,29.61,0,0,0,0.00
2013-6-27,85.3,77.2,69.3,64.2,55.7,46.9,83,51,27,29.73,29.70,0,0,0,0.00
2013-6-28,77.0,71.0,65.7,64.4,55.5,48.9,92,60,41,29.73,29.67,0,0,0,0.00
2013-6-29,75.4,68.6,62.6,64.9,53.9,41.1,98,65,32,29.91,29.67,0,0,0,0.00
2013-6-30,80.1,69.5,57.4,53.5,47.5,42.5,82,49,28,30.02,29.91,0,0,0,0.00
2013-7-1,82.9,72.8,61.7,60.3,51.1,44.9,89,51,29,30.11,29.03,0,0,0,0.00
2013-7-2,81.1,71.4,59.7,53.2,48.4,42.9,73,47,28,30.06,29.06,0,0,0,0.00
2013-7-3,83.7,73.1,59.7,60.6,48.0,40.3,89,46,24,29.97,29.85,0,0,0,0.00
2013-7-4,87.4,76.2,62.8,57.4,51.8,47.1,76,46,26,29.91,29.82,0,0,0,0.00
2013-7-5,87.1,79.3,70.2,56.7,53.9,49.0,56,42,32,29.85,29.76,0,0,0,0.00
2013-7-6,87.3,79.4,72.7,60.4,57.4,54.9,59,48,36,29.82,29.76,0,0,0,0.00
2013-7-7,90.0,80.7,70.0,69.5,62.8,55.8,96,57,38,29.85,29.76,0,0,0,0.00
2013-7-8,84.2,72.4,63.3,69.9,65.0,59.1,98,80,43,29.97,29.85,0,0,0,0.00
2013-7-9,84.6,77.0,69.4,75.3,66.3,59.7,97,71,49,29.91,29.70,0,0,0,0.00
2013-7-10,78.8,71.6,62.6,60.7,51.3,44.1,75,51,32,30.00,29.88,0,0,0,0.00
2013-7-11,81.1,71.0,63.7,56.3,52.2,46.8,76,54,31,30.03,29.91,0,0,0,0.00
2013-7-12,88.0,78.5,69.4,56.4,52.7,48.4,56,42,30,29.97,29.85,0,0,0,0.00
2013-7-13,79.9,73.7,67.1,73.8,62.2,50.4,98,69,42,30.03,29.88,0,0,0,0.00
2013-7-14,85.1,76.3,70.3,64.0,59.8,55.7,74,58,39,30.12,30.00,0,0,0,0.00
2013-7-15,88.0,78.5,68.9,66.7,62.1,56.1,89,60,35,30.18,30.12,0,0,0,0.00
2013-7-16,90.9,83.2,74.8,71.3,66.3,61.3,85,59,38,30.15,30.12,0,0,0,0.00
2013-7-17,91.9,82.7,73.6,73.1,66.6,60.2,86,61,36,30.20,30.06,0,0,0,0.00
2013-7-18,92.1,84.9,76.8,70.4,65.7,61.6,76,55,37,30.06,28.64,0,0,0,0.00
2013-7-19,84.0,79.4,73.0,68.8,58.1,50.3,74,49,33,28.79,28.61,0,0,0,0.00
2013-7-20,78.3,71.0,64.4,63.1,55.5,48.2,90,61,40,28.85,28.76,0,0,0,0.00
2013-7-21,79.9,69.9,58.3,66.1,57.0,42.4,97,66,45,28.85,28.70,0,0,0,0.00
2013-7-22,84.3,74.7,68.0,68.1,60.6,49.1,90,65,37,28.73,28.56,0,0,0,0.00
2013-7-23,73.9,67.8,61.0,53.7,47.7,42.5,75,50,34,28.91,28.73,0,0,0,0.00
2013-7-24,75.9,67.7,61.0,56.3,50.6,46.0,67,55,38,28.97,28.85,0,0,0,0.00
2013-7-25,79.5,72.1,63.3,60.9,56.6,50.4,80,59,39,28.85,28.79,0,0,0,0.00
2013-7-26,70.3,64.6,57.8,62.8,51.0,41.2,86,62,45,28.97,28.79,0,0,0,0.00
2013-7-27,61.5,57.2,52.9,49.6,44.1,40.0,76,62,46,28.97,28.82,0,0,0,0.00
2013-7-28,71.2,61.1,53.6,50.8,45.0,41.9,71,57,39,28.94,28.85,0,0,0,0.00
2013-7-29,77.0,66.8,54.3,60.4,50.0,45.3,94,59,34,29.00,28.94,0,0,0,0.00
2013-7-30,70.2,66.5,62.8,67.9,62.5,53.6,98,87,60,29.00,28.94,0,0,0,0.00
2013-7-31,78.1,69.0,62.1,68.0,57.1,43.3,98,71,32,28.97,28.88,0,0,0,0.00
2013-8-1,79.3,69.2,57.9,57.0,49.9,44.2,77,53,32,28.91,28.76,0,0,0,0.00
2013-8-2,75.2,68.9,61.7,57.0,48.7,41.4,72,51,33,28.94,28.73,0,0,0,0.00
2013-8-3,75.4,66.7,55.6,54.0,46.7,40.3,85,52,32,29.09,28.94,0,0,0,0.00
2013-8-4,75.7,65.3,54.9,54.1,48.5,43.8,84,57,34,29.12,28.91,0,0,0,0.00
2013-8-5,79.9,68.8,61.9,68.6,60.8,52.1,98,77,52,28.91,28.67,0,0,0,0.00
2013-8-6,83.4,68.7,58.8,66.0,59.0,55.4,95,74,44,28.73,28.58,0,0,0,0.00
2013-8-7,74.0,66.5,61.3,62.0,51.5,41.4,98,64,32,28.91,28.67,0,0,0,0.00
2013-8-8,74.1,66.2,57.9,59.3,53.6,48.4,91,66,41,28.94,28.88,0,0,0,0.00
2013-8-9,74.1,67.4,60.4,60.2,51.0,42.5,94,60,33,29.00,28.88,0,0,0,0.00
2013-8-10,73.4,67.0,58.3,54.4,48.2,42.8,81,52,34,29.06,28.97,0,0,0,0.00
2013-8-11,79.3,70.0,63.0,62.6,57.0,51.7,91,65,42,28.97,28.88,0,0,0,0.00
2013-8-12,78.1,70.4,61.9,64.5,52.4,44.1,89,57,31,28.97,28.88,0,0,0,0.00
2013-8-13,73.9,65.5,56.3,56.3,45.7,36.0,92,53,27,29.09,28.97,0,0,0,0.00
2013-8-14,77.0,65.3,55.0,56.5,48.0,42.5,89,57,32,29.09,28.97,0,0,0,0.00
2013-8-15,77.5,67.0,56.7,58.1,52.1,48.1,84,61,37,29.03,28.97,0,0,0,0.00
2013-8-16,78.4,69.1,60.1,60.0,53.6,47.9,87,60,35,29.06,29.00,0,0,0,0.00
2013-8-17,70.3,67.9,66.2,52.3,50.2,48.1,61,53,46,29.00,29.00,0,0,0,0.00
2013-8-18,81.5,71.8,60.1,57.5,52.0,47.4,82,53,32,29.03,28.88,0,0,0,0.00
2013-8-19,86.0,75.6,67.8,64.0,59.3,52.9,68,58,42,28.91,28.79,0,0,0,0.00
2013-8-20,88.5,79.6,71.1,70.5,65.3,62.2,79,63,45,28.82,28.76,0,0,0,0.00
2013-8-21,85.8,79.1,73.4,72.3,67.0,52.9,87,68,36,28.88,28.73,0,0,0,0.00
2013-8-22,84.0,74.8,67.3,56.0,45.7,40.0,59,37,23,29.03,28.88,0,0,0,0.00
2013-8-23,85.3,73.9,61.0,63.1,51.8,42.7,68,47,32,29.03,28.91,0,0,0,0.00
2013-8-24,89.4,79.5,70.5,68.6,64.1,61.2,76,61,39,28.97,28.82,0,0,0,0.00
2013-8-25,94.3,85.5,78.4,71.5,67.3,64.3,69,56,39,28.88,28.82,0,0,0,0.00
2013-8-26,94.6,85.6,77.9,72.9,70.1,65.4,83,62,40,28.88,28.73,0,0,0,0.00
2013-8-27,91.8,83.5,76.8,73.6,71.0,67.9,83,67,48,28.82,28.67,0,0,0,0.00
2013-8-28,90.0,79.5,70.5,73.3,65.7,56.2,96,67,32,28.91,28.82,0,0,0,0.00
2013-8-29,91.8,81.6,74.5,79.0,68.9,56.0,97,69,30,28.88,28.73,0,0,0,0.00
2013-8-30,82.4,76.3,70.9,69.9,62.4,56.3,87,63,43,28.82,28.70,0,0,0,0.00
2013-8-31,87.3,74.0,65.1,66.8,62.1,57.3,92,69,40,28.79,28.58,0,0,0,0.00
2013-9-1,71.4,68.2,61.9,65.8,56.2,48.9,89,67,53,28.88,28.61,0,0,0,0.00
2013-9-2,67.3,60.1,55.8,51.4,48.6,45.8,83,67,47,28.97,28.88,0,0,0,0.00
2013-9-3,76.1,62.9,51.1,60.4,52.1,46.6,97,71,40,28.97,28.88,0,0,0,0.00
2013-9-4,83.0,70.7,59.2,66.4,57.2,52.1,96,66,40,29.03,28.88,0,0,0,0.00
2013-9-5,82.2,71.8,62.6,63.0,53.8,47.9,72,54,35,29.09,28.97,0,0,0,0.00
2013-9-6,89.6,78.9,70.7,69.8,62.2,54.7,92,61,32,28.97,28.76,0,0,0,0.00
2013-9-7,90.0,79.7,69.6,70.0,61.5,55.1,90,57,32,28.91,28.73,0,0,0,0.00
2013-9-8,74.5,69.2,65.3,62.4,55.2,48.4,74,61,50,28.94,28.76,0,0,0,0.00
2013-9-9,90.9,77.6,69.8,72.0,66.1,61.3,91,71,41,28.76,28.53,0,0,0,0.00
2013-9-10,80.1,73.3,68.5,71.1,61.7,52.9,89,68,43,28.88,28.64,0,0,0,0.00
2013-9-11,82.0,72.6,63.9,65.8,52.7,41.1,94,55,26,28.94,28.88,0,0,0,0.00
2013-9-12,71.5,64.6,56.7,51.3,43.8,37.3,78,49,32,29.12,28.94,0,0,0,0.00
2013-9-13,68.7,58.5,47.8,50.1,40.8,36.8,88,55,33,29.15,28.97,0,0,0,0.00
2013-9-14,70.9,59.6,49.6,57.4,46.7,40.6,98,66,35,28.97,28.79,0,0,0,0.00
2013-9-15,63.7,58.7,51.3,59.5,53.0,43.6,98,83,52,29.20,28.76,0,0,0,0.00
2013-9-16,66.0,54.1,42.4,46.8,38.9,30.4,96,61,27,29.29,29.12,0,0,0,0.00
2013-9-17,67.3,57.6,48.2,58.6,47.1,36.7,96,69,50,29.12,28.82,0,0,0,0.00
2013-9-18,73.2,67.3,59.7,72.4,65.4,58.6,98,94,80,28.82,28.58,0,0,0,0.00
2013-9-19,74.8,70.0,64.8,73.8,66.5,55.5,98,89,67,28.67,28.53,0,0,0,0.00
2013-9-20,64.4,58.9,51.6,54.4,49.9,40.9,92,74,44,28.82,28.67,0,0,0,0.00
2013-9-21,61.3,53.8,48.0,49.6,44.3,39.0,94,73,46,28.88,28.79,0,0,0,0.00
2013-9-22,71.6,59.3,47.3,50.7,47.2,44.6,93,67,43,28.85,28.73,0,0,0,0.00
2013-9-23,72.5,63.6,55.4,50.4,46.8,43.4,73,56,36,28.82,28.73,0,0,0,0.00
2013-9-24,74.1,63.3,54.7,49.7,47.4,44.2,79,58,35,28.85,28.79,0,0,0,0.00
2013-9-25,72.9,62.9,52.3,57.8,48.5,43.7,95,63,37,28.85,28.76,0,0,0,0.00
2013-9-26,80.8,68.4,57.7,56.7,51.3,47.9,73,56,37,28.82,28.70,0,0,0,0.00
2013-9-27,83.1,73.3,66.2,60.7,56.4,53.0,73,57,36,28.79,28.67,0,0,0,0.00
2013-9-28,73.8,62.0,48.7,63.6,52.8,44.6,96,73,49,28.82,28.53,0,0,0,0.00
2013-9-29,75.2,60.7,46.6,47.7,41.9,37.7,90,55,28,28.82,28.67,0,0,0,0.00
2013-9-30,79.0,68.0,59.9,46.4,43.4,39.4,52,42,31,28.67,28.47,0,0,0,0.00
2013-10-1,73.6,66.7,56.3,48.7,39.2,31.4,57,38,22,28.85,28.47,0,0,0,0.00
2013-10-2,74.7,60.3,47.1,57.1,40.0,32.6,97,53,23,28.91,28.73,0,0,0,0.00
2013-10-3,59.2,57.7,55.4,58.6,57.0,54.7,98,98,95,28.82,28.73,0,0,0,0.00
2013-10-4,59.2,57.1,55.2,57.7,54.8,53.0,98,92,80,28.88,28.73,0,0,0,0.00
2013-10-5,60.4,55.7,44.4,59.9,52.8,42.5,98,91,63,28.76,28.61,0,0,0,0.00
2013-10-6,52.9,48.0,43.5,52.2,47.0,42.4,98,96,88,28.73,28.58,0,0,0,0.00
2013-10-7,65.3,53.2,44.4,53.4,42.2,35.3,98,72,34,28.85,28.70,0,0,0,0.00
2013-10-8,75.6,62.1,48.7,44.1,41.2,38.7,76,50,30,28.85,28.67,0,0,0,0.00
2013-10-9,74.9,65.6,59.0,46.8,44.1,41.3,60,46,35,28.91,28.79,0,0,0,0.00
2013-10-10,76.3,63.6,52.6,48.6,44.7,41.1,75,53,33,28.91,28.76,0,0,0,0.00
2013-10-11,73.6,66.3,57.9,59.8,49.9,45.9,88,57,41,28.76,28.50,0,0,0,0.00
2013-10-12,61.7,51.6,45.0,58.1,41.4,35.4,88,69,49,29.03,28.58,0,0,0,0.00
2013-10-13,58.8,48.5,37.9,41.0,34.2,30.1,87,61,35,29.29,29.06,0,0,0,0.00
2013-10-14,55.2,48.6,39.9,48.8,36.8,30.6,96,66,40,29.26,28.85,0,0,0,0.00
2013-10-15,54.5,50.9,46.9,53.9,50.4,46.4,98,98,97,28.85,28.56,0,0,0,0.00
2013-10-16,53.8,46.6,40.2,46.3,39.2,31.4,98,78,43,28.82,28.70,0,0,0,0.00
2013-10-17,57.7,47.1,39.6,46.8,38.9,33.6,98,76,42,28.76,28.64,0,0,0,0.00
2013-10-18,51.1,44.1,38.5,43.4,34.3,24.9,98,73,37,28.85,28.73,0,0,0,0.00
2013-10-19,45.3,40.4,34.5,41.9,35.2,30.8,92,82,64,28.73,28.58,0,0,0,0.00
2013-10-20,44.2,37.5,32.9,42.7,35.1,30.2,98,91,73,28.76,28.50,0,0,0,0.00
2013-10-21,38.7,34.9,30.4,30.1,19.1,15.7,73,53,42,28.82,28.76,0,0,0,0.00
2013-10-22,40.6,34.8,28.2,32.3,25.8,21.6,87,71,52,28.91,28.82,0,0,0,0.00
2013-10-23,37.6,35.3,33.8,32.1,22.2,14.5,85,60,43,28.97,28.85,0,0,0,0.00
2013-10-24,42.3,37.8,33.4,28.4,22.1,15.2,72,54,42,29.18,29.00,0,0,0,0.00
2013-10-25,57.4,44.5,30.2,37.8,30.1,24.8,85,59,41,29.18,28.64,0,0,0,0.00
2013-10-26,50.5,42.9,36.7,38.2,24.9,21.9,63,49,41,29.00,28.67,0,0,0,0.00
2013-10-27,55.9,42.7,31.3,29.4,26.2,22.8,78,54,36,29.03,28.70,0,0,0,0.00
2013-10-28,41.7,36.4,31.1,25.6,19.9,13.5,71,52,37,29.32,29.03,0,0,0,0.00
2013-10-29,40.1,36.4,30.2,35.8,24.8,17.9,90,63,52,29.29,29.00,0,0,0,0.00
2013-10-30,50.3,45.3,38.5,49.8,44.7,36.3,98,98,91,28.97,28.56,0,0,0,0.00
2013-10-31,50.5,44.0,40.6,50.0,42.9,37.3,98,96,86,28.56,28.32,0,0,0,0.00
2013-11-1,51.8,43.3,38.3,40.1,34.1,28.7,96,72,44,28.76,28.32,0,0,0,0.00
2013-11-2,48.4,40.1,33.8,34.7,27.9,24.5,80,63,40,29.00,28.76,0,0,0,0.00
2013-11-3,54.8,45.0,35.2,32.1,28.4,25.2,83,55,36,29.00,28.79,0,0,0,0.00
2013-11-4,48.4,44.7,35.8,45.9,34.7,28.7,93,69,47,29.03,28.73,0,0,0,0.00
2013-11-5,45.9,36.2,30.2,38.1,29.1,18.2,98,79,38,29.15,28.94,0,0,0,0.00
2013-11-6,38.5,33.8,30.9,33.3,27.1,20.7,98,78,52,29.06,28.94,0,0,0,0.00
2013-11-7,36.3,30.2,25.0,31.2,25.1,21.0,92,81,69,29.15,29.03,0,0,0,0.00
2013-11-8,45.9,35.5,23.4,36.5,25.2,20.8,95,69,43,29.09,28.53,0,0,0,0.00
2013-11-9,43.9,41.0,36.7,38.2,28.6,20.6,82,62,46,29.12,28.53,0,0,0,0.00
2013-11-10,43.9,38.1,30.9,28.0,23.9,20.4,70,57,44,29.24,29.00,0,0,0,0.00
2013-11-11,37.8,24.7,15.6,28.5,7.9,2.1,70,49,41,29.62,29.03,0,0,0,0.00
2013-11-12,29.1,20.3,12.2,8.3,4.4,0.2,63,50,38,29.68,29.35,0,0,0,0.00
2013-11-13,51.1,37.4,22.5,28.5,18.9,7.8,57,47,38,29.35,29.29,0,0,0,0.00
2013-11-14,51.6,41.7,35.6,32.9,29.5,25.5,78,62,47,29.29,28.70,0,0,0,0.00
2013-11-15,57.0,43.6,30.6,38.7,31.8,27.4,94,66,38,28.79,28.61,0,0,0,0.00
2013-11-16,50.0,45.4,40.8,49.5,41.6,30.0,98,87,57,28.61,28.20,0,0,0,0.00
2013-11-17,44.5,40.3,32.5,43.9,34.1,19.1,98,80,57,28.76,28.26,0,0,0,0.00
2013-11-18,34.9,30.0,23.4,21.0,15.8,13.9,73,56,44,29.20,28.76,0,0,0,0.00
2013-11-19,46.6,35.5,22.1,25.3,20.9,16.3,82,57,38,29.20,28.88,0,0,0,0.00
2013-11-20,46.2,42.7,38.1,33.3,25.5,20.7,82,52,39,29.00,28.85,0,0,0,0.00
2013-11-21,38.8,31.7,24.3,36.0,24.4,9.1,95,75,52,29.47,29.00,0,0,0,0.00
2013-11-22,33.8,23.2,12.2,9.8,6.1,-4.2,66,49,32,29.56,29.41,0,0,0,0.00
2013-11-23,17.6,11.5,7.2,0.5,-6.5,-10.7,54,44,37,29.80,29.53,0,0,0,0.00
2013-11-24,31.6,20.1,7.2,10.5,0.8,-12.1,54,42,40,29.68,29.68,0,0,0,0.00
2013-11-25,37.8,33.6,28.4,24.9,18.2,10.7,72,53,44,29.68,29.68,0,0,0,0.00
2013-11-26,29.7,20.7,13.3,14.4,2.7,-1.8,55,45,40,29.68,29.68,0,0,0,0.00
2013-11-27,24.6,17.9,8.3,5.3,1.7,-4.6,62,49,42,29.68,29.68,0,0,0,0.00
2013-11-28,27.0,22.1,13.5,8.3,5.7,2.1,60,49,42,29.68,29.68,0,0,0,0.00
2013-11-29,32.7,23.3,10.9,15.9,9.6,-0.2,77,56,43,29.68,29.68,0,0,0,0.00
2013-11-30,39.4,31.9,24.6,24.9,19.6,15.4,80,61,48,29.68,29.68,0,0,0,0.00
2013-12-1,35.2,27.6,20.3,23.1,18.6,15.7,85,69,52,29.68,29.68,0,0,0,0.00
2013-12-2,38.3,33.4,27.1,35.3,28.8,21.2,98,84,64,29.68,29.68,0,0,0,0.00
2013-12-3,36.1,35.1,32.7,35.6,34.6,32.2,98,98,98,29.68,29.68,0,0,0,0.00
2013-12-4,32.7,28.2,14.2,32.2,26.7,6.2,98,94,69,29.68,29.68,0,0,0,0.00
2013-12-5,13.8,6.2,-0.8,5.8,-1.5,-8.2,70,70,70,29.68,29.68,0,0,0,0.00
2013-12-6,3.9,-2.0,-7.2,-3.7,-9.4,-14.4,70,70,70,29.68,29.68,0,0,0,0.00
2013-12-7,2.1,-5.0,-12.5,-5.5,-12.3,-19.5,70,70,70,29.68,29.68,0,0,0,0.00
2013-12-8,12.4,6.6,-3.6,4.5,-1.1,-11.0,70,70,70,29.68,29.68,0,0,0,0.00
2013-12-9,11.7,1.1,-3.5,3.8,-6.4,-10.8,70,70,70,29.68,29.68,0,0,0,0.00
2013-12-10,11.1,6.1,1.2,3.2,-1.6,-6.3,70,70,70,29.68,29.68,0,0,0,0.00
2013-12-11,3.6,-2.9,-8.1,-4.0,-10.3,-15.3,70,70,70,29.68,29.68,0,0,0,0.00
2013-12-12,19.0,11.8,1.6,6.7,1.5,-5.9,70,63,49,29.68,29.68,0,0,0,0.00
2013-12-13,16.0,13.1,10.8,8.7,1.6,-1.9,73,60,55,29.68,29.68,0,0,0,0.00
2013-12-14,14.2,9.4,0.0,3.2,-2.9,-11.7,61,57,56,29.68,29.68,0,0,0,0.00
2013-12-15,2.8,0.4,-1.7,-9.0,-11.2,-13.2,57,57,57,29.68,29.68,0,0,0,0.00
2013-12-16,23.7,9.8,0.7,19.6,0.1,-11.0,84,64,57,29.68,29.68,0,0,0,0.00
2013-12-17,32.4,23.1,8.6,25.8,11.8,-2.8,85,62,46,29.68,29.68,0,0,0,0.00
2013-12-18,35.1,23.8,8.7,23.6,12.9,-2.7,82,63,51,29.68,29.68,0,0,0,0.00
2013-12-19,26.8,17.8,15.4,18.3,7.6,2.1,82,64,53,29.68,29.68,0,0,0,0.00
2013-12-20,18.9,15.8,11.7,13.4,8.8,6.4,82,74,62,29.68,29.68,0,0,0,0.00
2013-12-21,21.9,18.7,15.1,13.5,10.0,8.0,80,69,58,29.68,29.68,0,0,0,0.00
2013-12-22,18.9,14.6,6.8,12.2,6.9,-1.8,79,71,63,29.68,29.03,0,0,0,0.00
2013-12-23,6.4,-0.4,-6.3,-2.2,-8.8,-14.5,67,67,67,29.41,29.15,0,0,0,0.00
2013-12-24,10.8,-0.0,-12.8,1.9,-8.4,-20.7,67,67,67,29.38,29.03,0,0,0,0.00
2013-12-25,25.2,15.9,9.9,20.1,9.1,1.1,82,74,67,29.03,28.97,0,0,0,0.00
2013-12-26,26.6,23.5,16.3,20.1,17.2,11.4,82,76,69,29.09,29.00,0,0,0,0.00
2013-12-27,39.7,28.9,14.4,28.9,22.5,10.1,91,78,54,29.09,28.82,0,0,0,0.00
2013-12-28,44.8,31.5,18.4,36.6,25.6,10.5,97,81,48,28.94,28.56,0,0,0,0.00
2013-12-29,18.1,-0.2,-10.8,10.0,-10.4,-20.6,70,61,61,29.24,28.94,0,0,0,0.00
2013-12-30,4.1,-3.7,-12.3,-6.4,-13.8,-22.0,61,61,61,29.20,29.09,0,0,0,0.00
2013-12-31,-2.2,-5.9,-9.9,-12.4,-15.9,-19.7,61,61,61,29.32,29.09,0,0,0,0.00
2014-1-1,0.7,-3.7,-9.0,-9.6,-13.8,-18.9,61,61,61,29.38,29.29,0,0,0,0.00
2014-1-2,1.9,-4.4,-11.2,-8.4,-14.5,-20.9,61,61,61,29.41,29.26,0,0,0,0.00